Date String (YYYY-MM-DD hh:mm:ss) UTC,Instrument flags,absolute air pressure of the measurement (hPa),sample flow rate (lpm),inlet stack bypass flow (lpm),air temperature of the measurement (°C),ambient temperature measured by the external sensor (°C),aerosol sample conditioner tube jacket temperature (°C),OPC LED temperature (°C),internal box temperature (°C),relative humidity of the measurement (%),span deviation,mass concentration of particles derived from Lorenz-Mie calculation of OPC scattering (μg/m³),mass concentration of particles derived from Lorenz-Mie calculation of OPC scattering (μg/m³),mass concentration of particles derived from Lorenz-Mie calculation of OPC scattering (μg/m³)
DateTimeUTC,F1_M11,P_M11,Q1_M11,Q2_M11,T1_M11,T2_M11,T3_M11,T4_M11,T5_M11,U1_M11,ZSPAN_M11,X2_M11,X0_M11,X1_M11
2023-12-18 12:00:00,SystemResetWarning,0833.4,5.00,000.00,019.4,018.5,000.0,027.9,020.7,11.2,0000.0,0001.17,0004.72,0000.99
2023-12-18 12:01:00,SystemResetWarning,0833.4,5.00,000.00,019.4,018.5,000.0,027.8,020.7,11.2,0000.0,0001.17,0004.98,0000.99
2023-12-18 12:02:00,SystemResetWarning,0833.4,4.99,000.00,019.5,018.5,000.0,027.8,020.7,11.2,0000.0,0001.17,0004.97,0000.98
2023-12-18 12:03:00,SystemResetWarning,0833.4,5.00,000.00,019.4,018.5,000.0,027.8,020.7,11.2,0000.0,0001.20,0005.14,0000.99
2023-12-18 12:04:00,SystemResetWarning,0833.4,5.00,000.00,019.4,018.4,000.0,027.8,020.7,11.2,0000.0,0001.17,0004.97,0000.99
2023-12-18 12:05:00,SystemResetWarning,0833.4,5.00,000.00,019.4,018.4,000.0,027.8,020.7,11.2,0000.0,0001.16,0004.43,0001.00
2023-12-18 12:06:00,SystemResetWarning,0833.4,5.00,000.00,019.4,018.4,000.0,027.8,020.7,11.2,0000.0,0001.17,0004.13,0001.01
2023-12-18 12:07:00,SystemResetWarning,0833.4,5.00,000.00,019.4,018.4,000.0,027.8,020.7,11.2,0000.0,0001.21,0003.30,0001.02
2023-12-18 12:08:00,SystemResetWarning,0833.4,5.00,000.00,019.4,018.4,000.0,027.8,020.7,11.2,0000.0,0001.20,0003.27,0001.03
2023-12-18 12:09:00,SystemResetWarning,0833.4,5.00,000.00,019.4,018.4,000.0,027.8,020.7,11.2,0000.0,0001.21,0003.30,0001.03
2023-12-18 12:10:00,SystemResetWarning,0833.4,5.00,000.00,019.4,018.4,000.0,027.8,020.7,11.3,0000.0,0001.27,0003.50,0001.04
2023-12-18 12:11:00,SystemResetWarning,0833.4,5.00,000.00,019.4,018.4,000.0,027.8,020.7,11.3,0000.0,0001.28,0003.42,0001.06
2023-12-18 12:12:00,SystemResetWarning,0833.4,5.00,000.00,019.4,018.5,000.0,027.8,020.7,11.6,0000.0,0001.31,0003.10,0001.07
2023-12-18 12:13:00,SystemResetWarning,0833.4,5.00,000.00,019.4,018.5,000.0,027.8,020.7,11.5,0000.0,0001.34,0003.18,0001.08
2023-12-18 12:14:00,SystemResetWarning,0833.4,5.00,000.00,019.4,018.5,000.0,027.8,020.7,11.4,0000.0,0001.35,0003.36,0001.09
2023-12-18 12:15:00,SystemResetWarning,0833.4,5.01,000.00,019.4,018.5,000.0,027.8,020.7,11.3,0000.0,0001.34,0003.50,0001.09
2023-12-18 12:16:00,SystemResetWarning,0833.5,5.00,000.00,019.4,018.5,000.0,027.8,020.7,11.3,0000.0,0001.37,0003.50,0001.10
2023-12-18 12:17:00,SystemResetWarning,0833.5,5.00,000.00,019.4,018.5,000.0,027.8,020.7,11.4,0000.0,0001.38,0003.17,0001.09
2023-12-18 12:18:00,SystemResetWarning,0833.5,5.00,000.00,019.4,018.5,000.0,027.8,020.7,11.4,0000.0,0001.37,0002.77,0001.09
2023-12-18 12:19:00,SystemResetWarning,0833.5,5.00,000.00,019.4,018.5,000.0,027.8,020.7,11.4,0000.0,0001.38,0002.76,0001.09
2023-12-18 12:20:00,SystemResetWarning,0833.5,5.00,000.00,019.4,018.5,000.0,027.8,020.7,11.4,0000.0,0001.38,0003.06,0001.08
2023-12-18 12:21:00,SystemResetWarning,0833.5,5.00,000.00,019.4,018.5,000.0,027.8,020.7,11.3,0000.0,0001.36,0003.08,0001.07
2023-12-18 12:22:00,SystemResetWarning,0833.6,5.00,000.00,019.4,018.5,000.0,027.8,020.7,11.4,0000.0,0001.36,0003.03,0001.06
2023-12-18 12:23:00,SystemResetWarning,0833.5,5.00,000.00,019.4,018.5,000.0,027.8,020.7,11.4,0000.0,0001.35,0003.02,0001.07
2023-12-18 12:24:00,SystemResetWarning,0833.6,5.00,000.00,019.4,018.5,000.0,027.8,020.7,11.4,0000.0,0001.35,0004.10,0001.07
2023-12-18 12:25:00,SystemResetWarning,0833.5,5.00,000.00,019.4,018.5,000.0,027.8,020.7,11.4,0000.0,0001.35,0003.94,0001.07
2023-12-18 12:26:00,SystemResetWarning,0833.5,5.00,000.00,019.4,018.5,000.0,027.8,020.7,11.4,0000.0,0001.38,0003.74,0001.07
2023-12-18 12:27:00,SystemResetWarning,0833.6,4.99,000.00,019.4,018.5,000.0,027.8,020.7,11.5,0000.0,0001.39,0003.71,0001.07
2023-12-18 12:28:00,SystemResetWarning,0833.6,5.00,000.00,019.4,018.5,000.0,027.8,020.7,11.5,0000.0,0001.38,0003.67,0001.08
2023-12-18 12:29:00,SystemResetWarning,0833.6,5.00,000.00,019.4,018.5,000.0,027.8,020.7,11.5,0000.0,0001.38,0003.62,0001.07
2023-12-18 12:30:00,SystemResetWarning,0833.6,4.99,000.00,019.4,018.5,000.0,027.8,020.7,11.5,0000.0,0001.36,0003.60,0001.07
2023-12-18 12:31:00,SystemResetWarning,0833.6,5.00,000.00,019.4,018.5,000.0,027.8,020.7,11.5,0000.0,0001.36,0003.45,0001.08
2023-12-18 12:32:00,SystemResetWarning,0833.5,5.00,000.00,019.4,018.5,000.0,027.8,020.7,11.5,0000.0,0001.33,0003.18,0001.09
2023-12-18 12:33:00,SystemResetWarning,0833.5,5.00,000.00,019.4,018.5,000.0,027.7,020.7,11.5,0000.0,0001.34,0003.25,0001.10
2023-12-18 12:34:00,SystemResetWarning,0833.6,5.00,000.00,019.4,018.5,000.0,027.8,020.7,11.5,0000.0,0001.33,0003.19,0001.09
2023-12-18 12:35:00,SystemResetWarning,0833.6,5.00,000.00,019.4,018.5,000.0,027.8,020.7,11.5,0000.0,0001.33,0002.06,0001.08
2023-12-18 12:36:00,SystemResetWarning,0833.6,5.00,000.00,019.4,018.5,000.0,027.8,020.7,11.4,0000.0,0001.32,0002.02,0001.07
2023-12-18 12:37:00,SystemResetWarning,0833.5,5.00,000.00,019.4,018.5,000.0,027.8,020.7,11.4,0000.0,0001.29,0001.99,0001.07
2023-12-18 12:38:00,SystemResetWarning,0833.4,5.00,000.00,019.4,018.5,000.0,027.7,020.7,11.4,0000.0,0001.25,0001.95,0001.06
2023-12-18 12:39:00,SystemResetWarning,0833.5,5.00,000.00,019.4,018.5,000.0,027.8,020.7,11.4,0000.0,0001.25,0001.99,0001.05
2023-12-18 12:40:00,SystemResetWarning,0833.5,5.00,000.00,019.4,018.5,000.0,027.8,020.7,11.4,0000.0,0001.26,0002.14,0001.05
2023-12-18 12:41:00,SystemResetWarning,0833.5,5.00,000.00,019.4,018.5,000.0,027.7,020.7,11.4,0000.0,0001.26,0002.51,0001.05
2023-12-18 12:42:00,SystemResetWarning,0833.5,5.00,000.00,019.4,018.5,000.0,027.7,020.7,11.4,0000.0,0001.26,0004.24,0001.04
2023-12-18 12:43:00,SystemResetWarning,0833.5,5.00,000.00,019.4,018.5,000.0,027.7,020.7,11.3,0000.0,0001.25,0005.15,0001.04
2023-12-18 12:44:00,SystemResetWarning,0833.5,5.00,000.00,019.4,018.5,000.0,027.7,020.7,11.4,0000.0,0001.24,0005.70,0001.02
2023-12-18 12:45:00,SystemResetWarning,0833.4,5.00,000.00,019.4,018.5,000.0,027.7,020.7,11.4,0000.0,0001.25,0005.72,0001.02
2023-12-18 12:46:00,SystemResetWarning,0833.4,5.00,000.00,019.4,018.5,000.0,027.7,020.7,11.3,0000.0,0001.22,0005.69,0001.01
2023-12-18 12:47:00,SystemResetWarning,0833.4,5.00,000.00,019.4,018.5,000.0,027.7,020.7,11.4,0000.0,0001.24,0005.79,0001.00
2023-12-18 12:48:00,SystemResetWarning,0833.5,5.00,000.00,019.4,018.5,000.0,027.7,020.7,11.4,0000.0,0001.23,0005.93,0001.00
2023-12-18 12:49:00,SystemResetWarning,0833.5,5.00,000.00,019.4,018.5,000.0,027.7,020.7,11.4,0000.0,0001.23,0007.53,0001.00
2023-12-18 12:50:00,SystemResetWarning,0833.5,5.00,000.00,019.4,018.5,000.0,027.7,020.6,11.3,0000.0,0001.25,0007.74,0001.01
2023-12-18 12:51:00,SystemResetWarning,0833.5,5.00,000.00,019.4,018.5,000.0,027.7,020.6,11.3,0000.0,0001.24,0008.14,0001.00
2023-12-18 12:52:00,SystemResetWarning,0833.4,5.00,000.00,019.4,018.5,000.0,027.7,020.6,11.4,0000.0,0001.21,0008.41,0000.99
2023-12-18 12:53:00,SystemResetWarning,0833.4,4.99,000.00,019.4,018.5,000.0,027.7,020.6,11.4,0000.0,0001.18,0007.48,0000.97
2023-12-18 12:54:00,SystemResetWarning,0833.6,4.99,000.00,019.4,018.5,000.0,027.7,020.6,11.4,0000.0,0001.20,0006.83,0000.96
2023-12-18 12:55:00,SystemResetWarning,0833.4,5.00,000.00,019.4,018.5,000.0,027.7,020.6,11.4,0000.0,0001.20,0006.98,0000.97
2023-12-18 12:56:00,SystemResetWarning,0833.4,5.00,000.00,019.4,018.5,000.0,027.7,020.6,11.4,0000.0,0001.22,0007.99,0000.97
2023-12-18 12:57:00,SystemResetWarning,0833.4,5.01,000.00,019.4,018.5,000.0,027.7,020.7,11.4,0000.0,0001.23,0007.99,0000.98
2023-12-18 12:58:00,SystemResetWarning,0833.5,5.01,000.00,019.4,018.5,000.0,027.7,020.6,11.4,0000.0,0001.22,0007.94,0000.99
2023-12-18 12:59:00,SystemResetWarning,0833.5,5.00,000.00,019.4,018.5,000.0,027.7,020.7,11.4,0000.0,0001.22,0007.82,0000.99
